Printer-friendly version

IAU Minor Planet Center

Minor Planet Center

MPEC 2004-R75 : 2004 RG164

The following Minor Planet Electronic Circular may be linked-to from your own Web pages, but must not otherwise be redistributed electronically.


Read MPEC 2004-R74 Read MPEC 2004-R76


M.P.E.C. 2004-R75                                Issued 2004 Sept. 14, 03:02 UT

     The Minor Planet Electronic Circulars contain information on unusual
         minor planets and routine data on comets.  They are published
   on behalf of Commission 20 of the International Astronomical Union by the
          Minor Planet Center, Smithsonian Astrophysical Observatory,
                          Cambridge, MA 02138, U.S.A.

                  Supported in part by the Brinson Foundation
             Prepared using the Tamkin Foundation Computer Network

                              MPC@CFA.HARVARD.EDU
          URL http://cfa-www.harvard.edu/iau/mpc.html  ISSN 1523-6714

                                  2004 RG164

Observations:
     K04RG4G* C2004 09 10.17349 20 33 04.92 -08 29 24.2          18.3   ER075704
     K04RG4G  C2004 09 10.18462 20 33 31.26 -08 28 33.3          19.5   ER075704
     K04RG4G  C2004 09 10.19577 20 33 57.81 -08 27 41.1          19.6   ER075704
     K04RG4G  C2004 09 10.20690 20 34 24.23 -08 26 48.9          19.7   ER075704
     K04RG4G  C2004 09 10.21803 20 34 50.51 -08 25 58.0          18.7   ER075704
     K04RG4G  C2004 09 11.16821 21 13 42.40 -07 07 53.5          19.1   ER075704
     K04RG4G  C2004 09 11.17942 21 14 07.26 -07 06 56.3          19.5   ER075704
     K04RG4G  C2004 09 11.19057 21 14 31.87 -07 05 59.5          18.8   ER075704
     K04RG4G  C2004 09 11.20170 21 14 56.43 -07 05 01.8          19.7   ER075704
     K04RG4G  C2004 09 12.22691 21 52 40.95 -05 36 32.9          18.1   ER075704
     K04RG4G  C2004 09 12.23864 21 53 03.60 -05 35 32.8          18.2   ER075704
     K04RG4G  C2004 09 12.25039 21 53 26.22 -05 34 32.5          18.8   ER075704
     K04RG4G  C2004 09 12.25493 21 53 34.90 -05 34 09.1          18.5   ER075704
     K04RG4G  C2004 09 12.26212 21 53 48.80 -05 33 32.3          18.8   ER075704
     K04RG4G  C2004 09 12.26752 21 53 59.14 -05 33 04.0          18.4   ER075704
     K04RG4G  C2004 09 12.27385 21 54 11.35 -05 32 31.8          19.1   ER075704
     K04RG4G  C2004 09 12.27973 21 54 22.61 -05 32 01.4          18.5   ER075704
     K04RG4G  C2004 09 12.29253 21 54 47.20 -05 30 55.1          18.5   ER075704
     K04RG4G  C2004 09 12.30477 21 55 10.76 -05 29 52.0          18.7   ER075704
     K04RG4G  C2004 09 14.03617 22 46 27.12 -03 15 36.6                 ER075246
     K04RG4G  C2004 09 14.03692 22 46 28.10 -03 15 33.7                 ER075246
     K04RG4G  C2004 09 14.03731 22 46 28.68 -03 15 32.2                 ER075246

Observer details:
246 Klet Observatory-KLENOT.  Observer M. Tichy.  1.06-m KLENOT Telescope
    + CCD.
704 Lincoln Laboratory ETS, New Mexico.  Observers M. Blythe, F. Shelly,
    M. Bezpalko, R. Huber, L. Manguso, D. Torres, R. Kracke, M. McCleary,
    H. Stange, A. Milner.  Measurers J. Stuart, R. Sayer, J. Evans, J. Kommers.
    1.0-m f/2.15 reflector + CCD.

Orbital elements:
2004 RG164
Epoch 2004 July 14.0 TT = JDT 2453200.5                 MPC
M 341.67969              (2000.0)            P               Q
n   0.48564934     Peri.  147.44501     +0.80600604     +0.59190556
a   1.6029532      Node   176.26168     -0.54768265     +0.74670545
e   0.3762404      Incl.    1.26563     -0.22449494     +0.30344486
P   2.03           H   25.1           G   0.15           U   6
Residuals in seconds of arc
040910 704  0.4+  0.4-    040911 704  0.3+  0.5+    040912 704  0.2-  0.4+
040910 704  0.4-  0.5-    040912 704  0.2-  0.0     040912 704  0.2-  0.6+
040910 704  1.4+  0.2+    040912 704  0.2+  0.1+    040912 704  0.5+  0.4+
040910 704  2.0+  0.7+    040912 704  0.1+  0.2+    040914 246  1.1+  0.4-
040910 704  0.5+  0.5-    040912 704  0.7-  0.3+    040914 246  0.5-  0.7-
040911 704  1.1-  0.0     040912 704  0.3+  0.1+    040914 246  0.3-  0.9-
040911 704  0.1-  0.1+    040912 704  0.3-  0.6+
040911 704  0.1-  0.1-    040912 704  0.4+  0.3+

Ephemeris:
2004 RG164               a,e,i = 1.60, 0.38, 1                   q = 0.9999
Date    TT    R. A. (2000) Decl.     Delta      r     Elong.  Phase     V
2004 09 12    21 44.72   -05 51.9    0.022    1.027   155.9    23.6    18.0
2004 09 17    23 44.34   -00 28.7    0.035    1.040   177.9     2.1    18.1
2004 09 22    00 33.69   +01 51.7    0.052    1.055   170.7     8.9    19.4
2004 09 27    00 57.33   +02 57.6    0.071    1.072   169.4     9.9    20.2
2004 10 02    01 10.20   +03 33.5    0.091    1.091   170.8     8.4    20.7
2004 10 07    01 17.72   +03 55.6    0.113    1.112   173.3     6.0    21.1
2004 10 12    01 22.33   +04 11.4    0.136    1.134   175.5     3.9    21.4
2004 10 17    01 25.38   +04 25.1    0.161    1.157   175.1     4.2    21.8
2004 10 22    01 27.66   +04 39.5    0.188    1.182   171.9     6.8    22.3

Timothy B. Spahr             (C) Copyright 2004 MPC           M.P.E.C. 2004-R75

Read MPEC 2004-R74 Read MPEC 2004-R76


Our Web policy. Index to the CBAT/MPC/ICQ pages.


Valid HTML 4.01!